Hourly Data Report for August 09, 2022

ST-JOVITE
QUEBEC
Current Station Operator: ECCC - MSC

46°04'49.000" N
74°33'21.000" W
238.50 m
703GDKB
71376
WJT

Download Data

Hourly Data (August 2022)
Hourly Data Report for August 9, 2022
TIME
LST
Temp Definition
°C
Dew Point Definition
°C
Rel Hum Definition
%
Precip. Amount Definition
mm

Wind Dir Definition
10's deg

Wind Spd Definition
km/h
Visibility Definition
km
Stn Press Definition
kPa
Hmdx Definition


Wind Chill Definition


Weather Definition


00:00 13.9 LegendMM LegendMM 2.0 2 2   98.09     LegendNANA
01:00 14.0 LegendMM LegendMM 2.0   0   98.08     LegendNANA
02:00 14.0 LegendMM LegendMM 0.0 0 1   98.12     LegendNANA
03:00 14.1 LegendMM LegendMM 0.0   0   98.20     LegendNANA
04:00 14.1 LegendMM LegendMM 0.0   0   98.22     LegendNANA
05:00 14.1 LegendMM LegendMM 0.0   0   98.30     LegendNANA
06:00 14.3 LegendMM LegendMM 0.0   0   98.40     LegendNANA
07:00 14.7 LegendMM LegendMM 0.0 3 2   98.46     LegendNANA
08:00 15.4 LegendMM LegendMM 0.0 36 1   98.55     LegendNANA
09:00 15.3 LegendMM LegendMM 0.0 36 1   98.62     LegendNANA
10:00 16.0 LegendMM LegendMM 1.0 0 1   98.68     LegendNANA
11:00 16.5 16.5 100 0.0 12 1   98.72     LegendNANA
12:00 16.5 16.5 100 0.0 0 1   98.76     LegendNANA
13:00 16.9 LegendMM LegendMM 0.0 0 1   98.79     LegendNANA
14:00 17.1 16.9 99 0.0   0   98.82     LegendNANA
15:00 17.1 17.0 99 0.0 6 2   98.83     LegendNANA
16:00 17.5 17.5 100 0.0 0 1   98.84     LegendNANA
17:00 16.9 LegendMM LegendMM 0.0   0   98.86     LegendNANA
18:00 16.7 LegendMM LegendMM 0.0   0   98.90     LegendNANA
19:00 16.3 LegendMM LegendMM 0.0   0   98.92     LegendNANA
20:00 16.0 LegendMM LegendMM 0.0   0   98.97     LegendNANA
21:00 15.8 LegendMM LegendMM 0.0   0   99.00     LegendNANA
22:00 15.7 LegendMM LegendMM 0.0   0   98.99     LegendNANA
23:00 15.7 LegendMM LegendMM 0.0   0   99.00     LegendNANA

Notes on Data Quality.

Legend

  • E = Estimated
  • M = Missing
  • NA = Not Available*
  • [empty] = Indicates an unobserved value
Date modified: